Latest Coastal Weather Observations for Gabo Island (VIC)

IDN60701

Issued at 3:31 am EDT Friday 24 February 2017 (issued every 10 minutes, with the page automatically refreshed every 10 minutes)

About coastal observations | Map of coastal stations | Coastal observations for NSW | Marine services | Other Formats
Station Details ID: 084016 Name: GABO ISLAND LIGHTHOUSE Lat: -37.57 Lon: 149.92 Height: 15.2 m
Data from the previous 72 hours. | See also: Recent months at Gabo Island (VIC)
Date/Time
EDT
Temp
°C
Wind Pressure Rain since
9am
mm
Weather Cloud Vis
km
Sea
Height
m
Swell
Dir  Spd
kts
Gust
kts
hPa Trend Height
m
Period
s
Dir
24/03:30am 18.1 WSW 12 13 1020.8 - 0.0 - - - - - - -
24/03:00am 18.3 WSW 12 14 1020.8 - 0.0 Fine Mostly clear 30 <0.5 1.0 - -
24/02:30am 18.4 WSW 11 13 1020.9 - 0.0 - - - - - - -
24/02:00am 18.3 W 10 13 1020.9 - 0.0 - - - - - - -
24/01:30am 18.5 W 9 10 1021.0 - 0.0 - - - - - - -
24/01:00am 19.2 WSW 9 12 1021.2 - 0.0 - - - - - - -
24/12:30am 19.6 SSW 10 12 1021.1 - 0.0 - - - - - - -
24/12:00am 19.7 SW 12 13 1021.0 - 0.0 - - - - - - -
 
Date/Time
EDT
Temp
°C
Wind Pressure Rain since
9am
mm
Weather Cloud Vis
km
Sea
Height
m
Swell
Dir  Spd
kts
Gust
kts
hPa Trend Height
m
Period
s
Dir
23/11:30pm 19.8 SW 12 13 1021.0 - 0.0 - - - - - - -
23/11:00pm 19.9 SW 11 12 1021.1 - 0.0 - - - - - - -
23/10:30pm 20.0 SSW 11 12 1021.1 - 0.0 - - - - - - -
23/10:00pm 20.1 SSW 10 11 1021.0 - 0.0 - - - - - - -
23/09:30pm 20.1 SSW 11 12 1020.9 - 0.0 - - - - - - -
23/09:00pm 20.1 SSW 11 13 1020.3 - 0.0 Fine Clear 30 1 1.0 - -
23/08:30pm 20.1 SSW 11 12 1019.9 - 0.0 - - - - - - -
23/08:00pm 20.1 SSW 10 12 1019.4 - 0.0 - - - - - - -
23/07:30pm 20.5 SSW 11 13 1019.1 - 0.0 - - - - - - -
23/07:00pm 20.8 SSW 12 13 1018.7 - 0.0 - - - - - - -
23/06:30pm 21.2 SSW 13 15 1018.4 - 0.0 - - - - - - -
23/06:00pm 21.4 SSW 13 15 1018.0 - 0.0 - - - - - - -
23/05:30pm 21.6 SSW 13 15 1018.0 - 0.0 - - - - - - -
23/05:00pm 21.9 SSW 14 16 1017.7 - 0.0 - - - - - - -
23/04:30pm 22.0 SSW 13 15 1017.4 - 0.0 - - - - - - -
23/04:00pm 22.1 SSW 12 14 1017.2 - 0.0 - - - - - - -
23/03:30pm 22.2 SSW 11 13 1017.3 - 0.0 - - - - - - -
23/03:00pm 22.3 SSW 10 11 1017.0 - 0.0 Haze Mostly clear 25 1 1.0 - -
23/02:30pm 21.9 SSW 11 13 1016.9 - 0.0 - - - - - - -
23/02:00pm 21.8 SSW 11 13 1016.9 - 0.0 - - - - - - -
23/01:30pm 21.9 SSW 12 14 1016.9 - 0.0 - - - - - - -
23/01:00pm 21.8 SSW 12 14 1016.9 - 0.0 - - - - - - -
23/12:30pm 21.9 SSW 13 15 1016.8 - 0.0 - - - - - - -
23/12:00pm 23.0 SSW 13 15 1016.7 - 0.0 - - - - - - -
23/11:30am 23.5 S 10 13 1016.6 - 0.0 - - - - - - -
23/11:00am 22.9 S 11 13 1016.5 - 0.0 - - - - - - -
23/10:30am 23.2 S 9 10 1016.3 - 0.0 - - - - - - -
23/10:00am 23.4 SSE 5 6 1016.0 - 0.0 - - - - - - -
23/09:30am 24.0 SE 3 5 1015.8 - 0.0 - - - - - - -
23/09:00am 22.7 S 4 6 1015.6 - 0.0 Fine Clear 40 <0.5 1.0 - -
23/08:30am 23.6 N 9 13 1015.2 - 0.0 - - - - - - -
23/08:00am 21.5 NE 19 23 1014.2 - 0.0 - - - - - - -
23/07:30am 21.3 NNE 22 26 1013.6 - 0.0 - - - - - - -
23/07:00am 20.8 NNE 21 25 1013.3 - 0.0 - - - - - - -
23/06:30am 20.8 NNE 22 26 1013.1 - 0.0 - - - - - - -
23/06:00am 21.0 NNE 22 26 1012.9 - 0.0 - - - - - - -
23/05:30am 20.6 NE 20 23 1013.1 - 0.0 - - - - - - -
23/05:00am 20.7 NE 19 21 1013.1 - 0.0 - - - - - - -
23/04:30am 20.9 NE 18 22 1013.2 - 0.0 - - - - - - -
23/04:00am 21.0 NNE 17 20 1013.3 - 0.0 - - - - - - -
23/03:30am 21.2 NNE 19 24 1013.3 - 0.0 - - - - - - -
23/03:00am 21.5 NNE 21 27 1013.2 - 0.0 Fine Clear 20 1 1.0 - -
23/02:30am 21.7 NNE 24 30 1013.3 - 0.0 - - - - - - -
23/02:00am 21.8 NNE 22 30 1013.7 - 0.0 - - - - - - -
23/01:30am 21.7 NNE 24 30 1013.9 - 0.0 - - - - - - -
23/01:00am 22.0 NNE 27 34 1014.0 - 0.0 - - - - - - -
23/12:30am 22.2 NNE 28 37 1013.8 - 0.0 - - - - - - -
23/12:17am 21.9 NNE 27 37 1013.8 - 0.0 - - - - - - -
23/12:00am 22.2 NNE 30 36 1013.6 - 0.0 - - - - - - -
 
Date/Time
EDT
Temp
°C
Wind Pressure Rain since
9am
mm
Weather Cloud Vis
km
Sea
Height
m
Swell
Dir  Spd
kts
Gust
kts
hPa Trend Height
m
Period
s
Dir
22/11:30pm 22.3 NNE 30 38 1014.2 - 0.0 - - - - - - -
22/11:00pm 22.3 NNE 29 36 1014.4 - 0.0 - - - - - - -
22/10:30pm 22.3 NNE 30 39 1014.4 - 0.0 - - - - - - -
22/10:00pm 22.4 NNE 33 47 1014.0 - 0.0 - - - - - - -
22/09:30pm 22.5 NNE 35 45 1013.5 - 0.0 - - - - - - -
22/09:24pm 22.6 NNE 35 45 1013.4 - 0.0 - - - - - - -
22/09:00pm 22.4 NNE 34 41 1013.2 - 0.0 Fine Mostly clear 20 1 1.0 - -
22/08:30pm 22.4 NNE 32 39 1013.0 - 0.0 - - - - - - -
22/08:18pm 22.4 NNE 29 39 1013.0 - 0.0 - - - - - - -
22/08:00pm 22.4 NNE 28 33 1013.3 - 0.0 - - - - - - -
22/07:30pm 22.5 NNE 30 38 1012.9 - 0.0 - - - - - - -
22/07:00pm 22.7 NNE 31 39 1012.6 - 0.0 - - - - - - -
22/06:30pm 23.6 NNE 33 41 1012.5 - 0.0 - - - - - - -
22/06:00pm 23.9 NNE 33 44 1012.2 - 0.0 - - - - - - -
22/05:39pm 24.0 NNE 32 45 1012.1 - 0.0 - - - - - - -
22/05:30pm 23.9 NNE 33 40 1012.4 - 0.0 - - - - - - -
22/05:00pm 24.3 NNE 35 45 1012.2 - 0.0 - - - - - - -
22/04:43pm 24.2 NNE 32 42 1012.7 - 0.0 - - - - - - -
22/04:30pm 24.2 NNE 32 39 1012.9 - 0.0 - - - - - - -
22/04:00pm 24.2 NNE 31 39 1013.2 - 0.0 - - - - - - -
22/03:55pm 24.1 NNE 29 39 1013.3 - 0.0 - - - - - - -
22/03:30pm 24.1 NNE 29 36 1013.7 - 0.0 - - - - - - -
22/03:00pm 24.2 NNE 31 39 1013.9 - 0.0 Fine Mostly clear 40 2 1.0 - -
22/02:30pm 23.9 NNE 28 35 1014.6 - 0.0 - - - - - - -
22/02:00pm 23.7 NNE 27 33 1015.2 - 0.0 - - - - - - -
22/01:30pm 23.4 NNE 28 34 1015.5 - 0.0 - - - - - - -
22/01:00pm 23.6 NE 24 28 1016.1 - 0.0 - - - - - - -
22/12:30pm 23.0 NE 24 28 1016.5 - 0.0 - - - - - - -
22/12:00pm 22.9 NE 21 25 1016.9 - 0.0 - - - - - - -
22/11:30am 22.5 NE 20 26 1017.4 - 0.0 - - - - - - -
22/11:00am 22.3 NE 22 27 1017.7 - 0.0 - - - - - - -
22/10:30am 22.6 NE 19 23 1018.1 - 0.0 - - - - - - -
22/10:00am 22.2 NNE 18 24 1018.5 - 0.0 - - - - - - -
22/09:30am 21.8 NE 14 19 1018.7 - 0.0 - - - - - - -
22/09:00am 20.8 NE 8 9 1018.8 - 0.0 Fine Partly cloudy 40 1 1.0 - -
22/08:30am 20.2 NNE 7 9 1019.1 - 0.0 - - - - - - -
22/08:00am 19.5 NNE 7 8 1019.0 - 0.0 - - - - - - -
22/07:30am 18.5 N 6 8 1018.9 - 0.0 - - - - - - -
22/07:00am 16.9 N 6 7 1019.0 - 0.0 - - - - - - -
22/06:30am 16.5 N 6 8 1018.8 - 0.0 - - - - - - -
22/06:00am 15.7 N 5 7 1018.6 - 0.0 - - - - - - -
22/05:30am 15.1 N 6 7 1018.7 - 0.0 - - - - - - -
22/05:00am 15.3 N 6 7 1018.7 - 0.0 - - - - - - -
22/04:30am 15.8 N 7 8 1018.9 - 0.0 - - - - - - -
22/04:00am 15.5 N 7 8 1019.3 - 0.0 - - - - - - -
22/03:30am 15.1 N 6 7 1019.5 - 0.0 - - - - - - -
22/03:00am 15.7 N 7 9 1019.5 - 0.0 Fine Clear 50 1 1.0 - -
22/02:30am 15.7 N 7 9 1019.8 - 0.0 - - - - - - -
22/02:00am 15.5 N 7 8 1020.3 - 0.0 - - - - - - -
22/01:30am 15.2 N 6 7 1020.7 - 0.0 - - - - - - -
22/01:00am 16.2 N 8 11 1021.0 - 0.0 - - - - - - -
22/12:30am 15.9 N 7 8 1021.4 - 0.0 - - - - - - -
22/12:00am 15.6 N 7 8 1021.7 - 0.0 - - - - - - -
 
Date/Time
EDT
Temp
°C
Wind Pressure Rain since
9am
mm
Weather Cloud Vis
km
Sea
Height
m
Swell
Dir  Spd
kts
Gust
kts
hPa Trend Height
m
Period
s
Dir
21/11:30pm 17.0 NNE 8 9 1021.8 - 0.0 - - - - - - -
21/11:00pm 16.9 NNE 7 11 1022.1 - 0.0 - - - - - - -
21/10:30pm 15.3 N 5 6 1022.4 - 0.0 - - - - - - -
21/10:00pm 15.0 N 5 6 1022.4 - 0.0 - - - - - - -
21/09:30pm 15.4 N 6 7 1022.2 - 0.0 - - - - - - -
21/09:00pm 16.3 NNE 5 6 1021.8 - 0.0 Fine Clear 50 1 1.0 - -
21/08:30pm 17.4 ENE 4 5 1021.5 - 0.0 - - - - - - -
21/08:00pm 18.0 SSE 4 5 1021.2 - 0.0 - - - - - - -
21/07:30pm 18.6 SSE 5 6 1021.0 - 0.0 - - - - - - -
21/07:00pm 19.1 S 7 9 1020.8 - 0.0 - - - - - - -
21/06:30pm 19.4 S 8 9 1020.5 - 0.0 - - - - - - -
21/06:00pm 19.7 S 10 11 1020.1 - 0.0 - - - - - - -
21/05:30pm 20.0 S 10 11 1020.4 - 0.0 - - - - - - -
21/05:00pm 20.1 S 10 13 1020.3 - 0.0 - - - - - - -
21/04:30pm 20.1 S 12 14 1020.2 - 0.0 - - - - - - -
21/04:00pm 20.4 S 14 16 1020.2 - 0.0 - - - - - - -
21/03:30pm 20.5 S 17 19 1020.1 - 0.0 - - - - - - -
21/03:00pm 20.7 S 18 21 1020.0 - 0.0 Fine Mostly clear 50 1 1.0 - -
21/02:30pm 20.5 SSW 19 21 1020.1 - 0.0 - - - - - - -
21/02:00pm 19.9 SSW 19 22 1020.4 - 0.0 - - - - - - -
21/01:30pm 19.9 SSW 19 23 1020.6 - 0.0 - - - - - - -
21/01:00pm 19.3 SSW 19 21 1020.8 - 0.0 - - - - - - -
21/12:30pm 19.0 SSW 17 19 1021.1 - 0.0 - - - - - - -
21/12:00pm 19.1 SSW 14 16 1021.2 - 0.0 - - - - - - -
21/11:30am 19.1 SSW 11 13 1021.4 - 0.0 - - - - - - -
21/11:00am 19.3 WSW 11 15 1021.5 - 0.0 - - - - - - -
21/10:30am 19.1 WSW 10 14 1021.5 - 0.0 - - - - - - -
21/10:00am 18.9 WSW 12 17 1021.2 - 0.0 - - - - - - -
21/09:30am 18.3 W 13 19 1020.9 - 0.0 - - - - - - -
21/09:00am 17.3 W 11 15 1020.5 - 0.0 Fine Mostly clear 40 1 1.0 - -
21/08:30am 16.7 W 12 16 1020.2 - 0.0 - - - - - - -
21/08:00am 16.1 W 14 17 1020.0 - 0.0 - - - - - - -
21/07:30am 14.5 WNW 10 13 1019.6 - 0.0 - - - - - - -
21/07:00am 14.7 W 13 17 1019.2 - 0.0 - - - - - - -
21/06:30am 14.6 W 10 15 1018.7 - 0.0 - - - - - - -
21/06:00am 14.6 W 13 16 1018.3 - 0.0 - - - - - - -
21/05:30am 14.1 WNW 8 13 1018.1 - 0.0 - - - - - - -
21/05:00am 14.6 W 12 16 1017.8 - 0.0 - - - - - - -
21/04:30am 14.7 WNW 10 16 1017.6 - 0.0 - - - - - - -
21/04:00am 14.8 WNW 12 15 1017.5 - 0.0 - - - - - - -

Other Formats:

Comma delimited format used in spreadsheet applications
http://www.bom.gov.au/fwo/IDN60701/IDN60701.94933.axf

JavaScript Object Notation format (JSON) in row-major order
http://www.bom.gov.au/fwo/IDN60701/IDN60701.94933.json